This is the latest recevied weather packets stored in our database for station/object DL4MGC-10. If no packets are shown the sender has not sent any weather packets the latest 10 day(s).
| Time | Temp. | Humidity | Pressure | Rain* | Wind** | Luminosity | Snow |
|---|---|---|---|---|---|---|---|
| 1777829960 | 23.89° C | 46% | 1012 hPa | - | - | - | - |
| 1777829060 | 24.44° C | 42% | 1012 hPa | - | - | - | - |
| 1777828160 | 24.44° C | 40% | 1012.1 hPa | - | - | - | - |
| 1777827260 | 25° C | 40% | 1012.1 hPa | - | - | - | - |
| 1777826360 | 25.56° C | 39% | 1012.1 hPa | - | - | - | - |
| 1777825460 | 25.56° C | 38% | 1012 hPa | - | - | - | - |
| 1777824560 | 26.11° C | 37% | 1012.1 hPa | - | - | - | - |
| 1777823660 | 27.22° C | 37% | 1012.1 hPa | - | - | - | - |
| 1777822760 | 26.67° C | 37% | 1012.2 hPa | - | - | - | - |
| 1777821859 | 25.56° C | 37% | 1012.3 hPa | - | - | - | - |
| 1777820959 | 25.56° C | 37% | 1012.4 hPa | - | - | - | - |
| 1777820059 | 26.11° C | 37% | 1012.4 hPa | - | - | - | - |
| 1777819159 | 26.11° C | 36% | 1012.6 hPa | - | - | - | - |
| 1777818259 | 26.11° C | 36% | 1012.7 hPa | - | - | - | - |
| 1777817359 | 26.11° C | 37% | 1012.7 hPa | - | - | - | - |
| 1777816459 | 26.11° C | 38% | 1012.8 hPa | - | - | - | - |
| 1777815559 | 26.67° C | 37% | 1012.9 hPa | - | - | - | - |
| 1777814659 | 27.22° C | 36% | 1012.9 hPa | - | - | - | - |
| 1777813759 | 27.22° C | 38% | 1013.1 hPa | - | - | - | - |
| 1777812858 | 26.67° C | 35% | 1013.2 hPa | - | - | - | - |
| 1777811958 | 27.78° C | 33% | 1013.4 hPa | - | - | - | - |
| 1777811058 | 27.22° C | 35% | 1013.5 hPa | - | - | - | - |
| 1777810158 | 27.78° C | 38% | 1013.5 hPa | - | - | - | - |
| 1777809258 | 26.67° C | 39% | 1013.7 hPa | - | - | - | - |
| 1777808358 | 26.11° C | 42% | 1013.8 hPa | - | - | - | - |
* Rain since midnight (hover to see other rain measurements)
** Current wind speed in m/s (hover to see current wind gust speed)